EW4994 Weather Reports


Display with metric or nautical units.
time (UTC)temp
F
wind
direction
speed
MPH
gust
MPH
rain 1hr
in
rain 24hr
in
rain mn
in
humidity
%
barometer
mb
20260504090104 65 207 12.0 15.0 0.00 0.00 0.00 59 1010.4
20260504081555 65 223 13.0 21.0 0.00 0.00 0.00 58 1010.3
20260504050023 65 182 10.0 15.0 0.00 0.00 0.00 51 1012.1
20260504044521 65 194 10.0 16.0 0.00 0.00 0.00 50 1012.2
20260504043020 65 188 9.0 14.0 0.00 0.00 0.00 49 1012.2
20260504041518 65 214 8.0 13.0 0.00 0.00 0.00 49 1012.3
20260504040017 65 224 7.0 16.0 0.00 0.00 0.00 49 1012.4
20260504034531 65 206 8.0 12.0 0.00 0.00 0.00 48 1012.5
20260504033018 65 194 5.0 17.0 0.00 0.00 0.00 47 1012.6
20260504031514 65 193 10.0 14.0 0.00 0.00 0.00 47 1012.6
20260504030014 65 227 10.0 16.0 0.00 0.00 0.00 46 1012.7
20260504024515 65 209 9.0 15.0 0.00 0.00 0.00 45 1012.8
20260504023013 66 205 8.0 15.0 0.00 0.00 0.00 45 1012.7
20260504021513 66 205 6.0 11.0 0.00 0.00 0.00 46 1012.7
20260504020012 66 198 7.0 13.0 0.00 0.00 0.00 46 1012.6
20260504014517 66 204 6.0 11.0 0.00 0.00 0.00 44 1012.7
20260504013011 67 218 8.0 11.0 0.00 0.00 0.00 43 1012.7
20260504011511 67 203 6.0 10.0 0.00 0.00 0.00 42 1012.6
20260504010010 68 196 7.0 10.0 0.00 0.00 0.00 40 1012.7
20260504004509 69 210 5.0 10.0 0.00 0.00 0.00 39 1012.6
20260504003008 70 215 8.0 14.0 0.00 0.00 0.00 37 1012.5
20260504001506 71 197 9.0 14.0 0.00 0.00 0.00 36 1012.7
20260504000006 71 194 11.0 17.0 0.00 0.00 0.00 35 1012.6
20260503234502 71 217 11.0 17.0 0.00 0.00 0.00 36 1012.8
20260503233100 71 237 15.0 23.0 0.00 0.00 0.00 35 1012.9
20260503231558 72 218 9.0 18.0 0.00 0.00 0.00 35 1013.1
20260503224554 72 216 16.0 25.0 0.00 0.00 0.00 32 1013.5
20260503223052 72 222 11.0 19.0 0.00 0.00 0.00 34 1013.6
20260503221548 72 198 13.0 22.0 0.00 0.00 0.00 33 1013.9
20260503220047 71 211 16.0 25.0 0.00 0.00 0.00 33 1014.0
20260503214552 71 192 12.0 22.0 0.00 0.00 0.00 34 1014.2
20260503213106 71 195 12.0 21.0 0.00 0.00 0.00 35 1014.4
20260503211557 71 243 13.0 20.0 0.00 0.00 0.00 36 1014.8
20260503210036 70 252 16.0 25.0 0.00 0.00 0.00 34 1015.0
20260503204550 70 212 15.0 24.0 0.00 0.00 0.00 36 1015.3
20260503203033 69 227 14.0 25.0 0.00 0.00 0.00 35 1015.6
20260503201526 69 223 12.0 24.0 0.00 0.00 0.00 38 1016.2
20260503200023 69 229 11.0 24.0 0.00 0.00 0.00 37 1016.5
20260503194523 69 182 14.0 23.0 0.00 0.00 0.00 37 1016.9
20260503193015 68 188 15.0 27.0 0.00 0.00 0.00 38 1017.3
20260503191513 68 263 14.0 26.0 0.00 0.00 0.00 41 1017.7
20260503190009 67 192 10.0 23.0 0.00 0.00 0.00 39 1017.9
20260503184507 67 223 12.0 25.0 0.00 0.00 0.00 40 1018.3
20260503183004 66 269 15.0 24.0 0.00 0.00 0.00 41 1018.4
20260503181503 66 236 20.0 27.0 0.00 0.00 0.00 41 1018.8
20260503180100 66 219 7.0 21.0 0.00 0.00 0.00 42 1019.0
20260503174613 65 220 11.0 22.0 0.00 0.00 0.00 41 1019.1
20260503173125 65 213 9.0 21.0 0.00 0.00 0.00 42 1019.5
20260503171552 64 202 15.0 19.0 0.00 0.00 0.00 43 1019.8